Location: Crescent
(42.8242°N, 73.7329°W)
Time: 00:18:59
(UTC+00:00)

Tiros 1 - Pass Details

Date: 20 February 2026
Orbit: 618 x 649 km, 48.4° (Epoch: 9 March)

Event Time Altitude Azimuth Distance (km) Brightness Sun altitude
Rises 19:01:28 0° 291° (WNW) 2,891 10.6 30.6°
Reaches altitude 10° 19:04:00 10° 280° (W) 1,980 10.0 30.3°
Maximum altitude 19:07:54 28° 221° (SW) 1,150 11.4 29.9°
Drops below altitude 10° 19:11:47 10° 162° (SSE) 1,971 10.2 29.5°
Sets 19:14:19 0° 151° (SSE) 2,874 10.8 29.3°
